User: anonymous   Login
Location: Fredericksburg
(30.2750°N, 98.8720°W)
Time: 19:59:45
(UTC-05:00)
Language:

PCSat - Orbit

View from above orbital plane
View from above orbital plane
View from above satellite
View from above satellite

Ground track
Ground track

The orbit data is extracted from the following two-line orbital elements,

1 26931U 01043C   18169.54345496 -.00000054  00000-0  11034-4 0  9997
2 26931  67.0507 225.9100 0007895 274.4076  85.6123 14.30508143872748
Epoch (UTC): 18 June 2018 13:02:34
Eccentricity: 0.0007895
inclination: 67.0507°
perigee height: 784 km
apogee height: 795 km
right ascension of ascending node: 225.9100°
argument of perigee: 274.4076°
revolutions per day: 14.30508143
mean anomaly at epoch: 85.6123°
orbit number at epoch: 87274

The dashed part of the orbit path shows where the satellite is in the earth's shadow,  

DLR